Dewpoint
69 67 67 65 63 58 52 49 53 53 50 48 48 54 54 57 55 58 64 64 64 66 70 73 76 76 75 76 76 76 76 76 77 76 75 75 75 75 75 75 75 76 75 74 74 73 73 73 73
63 63 63 63 59 54 55 54 52 49 47 48 49 54 55 55 58 61 63 64 64 65 68 70 76 76 76 76 76 76 75 75 75 72 75 75 74 75 74 75 74 74 75 74 74 73 73 72 72
65 63 62 61 57 53 54 54 51 50 49 51 50 49 55 56 59 62 63 63 65 66 68 73 77 77 76 76 76 75 75 75 72 71 72 74 73 73 74 73 74 73 73 74 74 73 73 72 72
60 62 61 57 51 52 52 54 50 52 52 53 53 57 55 57 60 61 62 64 64 65 69 76 77 77 76 76 76 75 75 74 72 70 69 68 73 72 72 73 73 72 72 72 73 73 72 72 72
58 57 53 53 47 50 52 52 53 53 55 54 57 57 57 58 63 61 63 64 64 66 70 73 77 77 77 77 76 75 75 75 74 73 70 70 67 70 71 71 72 72 71 71 71 72 72 72 72
51 56 53 51 45 48 50 51 53 53 55 55 56 58 59 60 60 61 64 64 65 67 68 71 76 77 77 76 75 76 76 74 74 74 72 72 70 69 70 71 71 71 71 71 71 72 72 72 72
49 52 47 47 52 52 50 50 53 53 57 54 58 61 62 59 60 61 64 67 67 67 68 71 71 75 76 76 76 75 75 75 74 74 73 72 71 71 69 70 71 71 71 72 71 72 73 72 72
49 56 47 49 50 50 51 50 54 54 55 56 59 61 64 59 60 62 64 64 66 67 69 71 73 73 74 74 75 75 75 74 74 73 73 72 71 71 71 71 71 72 72 72 72 73 73 73 72
53 54 46 46 47 49 51 52 52 56 55 53 54 60 60 59 59 62 65 66 66 68 68 69 70 72 74 74 75 75 75 74 73 73 72 71 70 70 71 72 73 72 72 72 73 73 73 73 72
50 52 43 45 48 50 51 52 53 52 55 59 60 64 64 59 58 61 62 66 66 68 68 69 70 70 73 72 75 75 75 72 73 74 72 72 73 73 71 72 73 73 73 73 73 73 73 73 70
41 43 43 44 47 50 50 51 50 54 55 56 59 62 66 60 59 58 61 63 66 68 69 68 72 74 72 74 75 73 76 76 75 75 74 73 72 72 73 73 71 73 73 71 71 71 71 70 72
38 39 39 42 45 48 48 49 49 50 53 52 60 63 64 59 56 58 62 62 66 69 68 70 71 74 74 73 72 71 73 72 72 73 74 75 73 73 74 73 72 74 72 72 71 69 70 71 71
35 37 37 40 39 42 45 48 49 49 52 52 59 59 57 58 57 57 59 63 66 67 68 69 72 75 72 76 75 72 72 72 73 74 73 75 70 73 75 74 74 74 74 72 71 71 71 70 69
36 36 33 32 36 40 41 45 48 48 50 50 52 53 55 55 57 58 57 61 62 65 66 68 70 73 74 76 76 76 71 73 73 73 72 74 72 74 76 73 73 74 74 72 73 75 74 73 72
33 31 32 33 32 34 38 51 52 50 47 49 51 53 54 55 55 55 56 60 62 64 66 68 70 71 74 75 75 74 75 71 73 73 75 75 75 74 74 73 73 75 73 70 73 73 74 73 71
31 33 32 31 31 30 32 48 53 51 47 47 51 52 53 54 55 56 55 60 62 63 68 69 67 70 74 75 73 75 74 70 73 72 73 73 74 75 76 74 74 74 73 73 73 75 73 72 71
30 28 34 26 29 27 27 30 31 40 45 46 50 51 52 55 55 57 56 57 62 65 66 69 69 69 72 76 75 74 74 76 75 75 73 75 72 74 75 75 75 77 75 74 72 72 71 69 71
28 30 25 26 26 28 28 29 28 30 41 45 43 50 54 53 54 57 57 57 60 66 69 68 69 72 74 74 74 72 71 75 75 77 77 74 72 74 75 74 75 75 75 74 73 71 70 69 71
26 23 22 26 26 28 29 28 27 28 29 40 41 43 50 52 56 57 58 59 59 63 66 70 69 73 72 72 73 72 68 73 73 74 75 73 74 74 75 77 77 76 74 73 73 73 74 71 72
23 21 23 26 27 27 27 28 30 28 30 31 37 41 43 52 55 59 59 60 60 64 68 70 73 73 73 73 72 73 72 72 70 74 72 73 73 74 76 72 74 76 72 73 73 73 73 71 71
21 17 20 24 26 23 26 26 30 28 34 32 32 36 40 46 53 57 59 60 60 65 67 70 73 74 74 75 74 75 75 75 73 72 71 71 72 73 75 75 76 76 78 74 73 73 73 69 70
15 16 22 24 24 22 23 22 35 34 31 34 32 36 37 43 49 56 57 58 60 62 67 71 73 75 74 76 71 72 72 70 71 71 72 71 72 72 73 75 75 75 75 73 74 74 75 72 70
17 20 23 26 23 23 24 21 27 32 32 30 35 39 37 40 46 53 57 60 60 63 64 70 73 75 76 77 76 75 73 73 73 74 71 71 72 73 72 74 73 74 74 71 75 74 74 75 72
21 21 23 23 24 24 25 24 19 28 30 29 38 41 41 41 46 50 57 61 62 62 64 68 73 74 75 75 75 75 73 72 71 73 71 71 72 73 73 74 73 75 75 73 70 72 75 74 74
20 19 20 22 24 23 31 24 26 22 24 28 32 41 43 44 46 50 55 59 63 63 63 68 73 74 75 74 74 74 74 72 71 71 71 71 71 70 73 75 74 74 75 75 74 75 77 76 75
23 22 20 24 18 17 27 24 24 23 25 30 33 40 44 44 47 51 55 58 61 63 65 68 73 74 74 74 74 75 75 73 71 71 71 70 69 69 73 74 74 75 75 75 76 75 75 73 73
22 22 21 18 17 17 17 29 30 31 27 27 35 38 44 45 48 51 53 55 61 62 66 68 73 74 74 73 74 74 75 73 71 71 71 72 70 70 73 73 74 74 75 75 75 73 71 66 67
24 22 19 20 27 23 23 28 31 37 32 33 38 39 46 47 49 51 53 57 58 60 65 68 73 74 74 72 73 72 73 74 73 71 70 71 75 73 74 74 74 74 76 77 77 75 74 68 69
25 24 24 23 22 20 18 26 30 38 33 35 43 47 48 48 51 52 53 60 63 63 64 65 71 73 73 71 72 72 72 72 73 72 72 74 74 73 72 72 74 74 74 75 76 75 75 72 74
23 25 26 29 31 26 28 28 35 37 38 45 48 51 51 52 54 52 54 57 60 65 66 66 68 71 72 72 73 72 72 72 71 71 70 74 73 72 69 69 72 75 76 75 75 74 73 73 74
Lifted_Index
-2 -2 -3 -3 -3 -2 -2 -2 -2 -1 -1 0 0 0 -0 -1 -1 -1 -2 -2 -1 -1 -2 -4 -5 -5 -5 -5 -5 -5 -5 -5 -5 -4 -4 -4 -5 -5 -5 -5 -5 -5 -5 -6 -6 -6 -6 -6 -6
-2 -2 -3 -3 -2 -2 -2 -2 -2 -1 -0 0 0 0 -0 -1 -1 -1 -2 -2 -1 -1 -2 -4 -5 -5 -5 -5 -5 -5 -5 -5 -4 -3 -3 -4 -4 -5 -5 -5 -5 -5 -5 -6 -6 -6 -6 -6 -6
-2 -3 -3 -2 -2 -2 -2 -2 -1 -1 -0 -0 -0 -0 -0 -1 -1 -1 -1 -2 -2 -2 -3 -4 -5 -6 -6 -6 -6 -5 -5 -4 -3 -2 -2 -3 -3 -4 -4 -4 -4 -5 -5 -5 -6 -6 -6 -6 -6
-2 -3 -2 -2 -2 -2 -2 -2 -1 -1 -1 -1 -1 -1 -1 -1 -1 -1 -1 -2 -2 -2 -3 -5 -6 -6 -6 -6 -6 -5 -5 -4 -2 -1 -0 -1 -2 -3 -3 -3 -4 -4 -4 -5 -5 -5 -5 -5 -6
-2 -2 -2 -1 -1 -1 -2 -2 -2 -1 -1 -1 -2 -2 -2 -2 -2 -1 -1 -2 -2 -3 -4 -5 -6 -6 -6 -6 -5 -5 -5 -4 -3 -2 -1 -0 -0 -1 -2 -3 -3 -3 -4 -4 -4 -5 -5 -5 -6
-1 -1 -1 -1 -1 -1 -1 -1 -2 -2 -2 -2 -2 -2 -2 -2 -2 -2 -2 -2 -2 -3 -3 -4 -5 -6 -6 -6 -5 -5 -5 -4 -4 -3 -2 -1 0 0 -0 -2 -2 -3 -3 -4 -4 -4 -5 -5 -6
-1 -1 -1 -1 -1 -1 -1 -1 -1 -2 -2 -2 -2 -3 -3 -3 -2 -2 -2 -2 -3 -3 -3 -4 -5 -5 -6 -6 -5 -5 -5 -4 -4 -3 -2 -1 -1 0 -0 -1 -2 -3 -3 -4 -4 -4 -5 -6 -6
-1 -1 -1 -1 -1 -1 -1 -1 -1 -2 -2 -2 -2 -2 -3 -3 -2 -2 -2 -2 -3 -3 -3 -4 -4 -5 -5 -5 -5 -5 -5 -5 -4 -3 -2 -2 -1 -1 -1 -1 -2 -3 -4 -4 -4 -5 -5 -6 -6
-1 -1 -1 -1 -1 -2 -2 -2 -2 -2 -2 -2 -2 -2 -3 -3 -3 -3 -3 -3 -3 -3 -4 -4 -4 -5 -5 -5 -6 -5 -5 -5 -4 -3 -3 -2 -2 -2 -2 -2 -3 -3 -4 -4 -5 -5 -5 -5 -6
-1 -1 -1 -1 -1 -2 -2 -2 -2 -2 -2 -2 -2 -2 -3 -3 -3 -3 -3 -3 -3 -3 -4 -4 -5 -5 -5 -5 -6 -6 -5 -5 -5 -4 -3 -3 -3 -3 -3 -3 -3 -4 -4 -4 -5 -5 -5 -5 -5
-0 -0 -0 -0 -1 -1 -2 -2 -2 -2 -2 -2 -2 -2 -3 -3 -3 -3 -3 -3 -3 -3 -4 -4 -4 -5 -5 -5 -6 -5 -5 -5 -5 -4 -4 -4 -3 -3 -3 -3 -3 -4 -4 -4 -4 -4 -4 -4 -4
0 1 1 0 -0 -1 -1 -2 -2 -2 -2 -3 -3 -3 -3 -3 -3 -2 -2 -3 -3 -3 -3 -4 -4 -4 -5 -5 -5 -5 -5 -5 -5 -5 -4 -4 -3 -3 -3 -3 -3 -4 -4 -4 -4 -4 -4 -4 -3
1 1 1 1 1 0 -1 -2 -2 -2 -2 -2 -3 -3 -3 -3 -3 -2 -2 -3 -3 -3 -3 -4 -4 -4 -5 -5 -5 -5 -5 -5 -5 -5 -4 -3 -3 -3 -4 -4 -3 -3 -3 -3 -3 -3 -3 -3 -3
1 1 1 2 2 1 -0 -1 -2 -2 -2 -2 -2 -2 -3 -3 -2 -2 -2 -2 -3 -3 -3 -4 -4 -5 -5 -5 -5 -5 -5 -5 -5 -5 -4 -4 -3 -4 -4 -4 -3 -3 -3 -2 -3 -3 -3 -3 -3
2 1 1 1 2 2 0 -1 -2 -2 -2 -1 -1 -2 -2 -2 -2 -2 -2 -3 -3 -3 -3 -4 -4 -5 -5 -5 -5 -5 -5 -4 -5 -5 -4 -4 -3 -4 -4 -4 -3 -3 -3 -2 -2 -3 -4 -4 -3
1 0 -0 1 2 2 1 -0 -1 -2 -2 -1 -1 -2 -2 -3 -3 -2 -2 -3 -3 -3 -4 -4 -4 -4 -5 -5 -5 -4 -4 -4 -4 -5 -4 -4 -3 -4 -4 -4 -4 -4 -3 -2 -2 -3 -3 -4 -4
0 -0 -0 -0 1 2 2 1 -0 -1 -1 -1 -2 -2 -2 -3 -3 -3 -3 -3 -3 -4 -4 -4 -4 -5 -5 -5 -5 -4 -4 -4 -4 -4 -4 -4 -3 -3 -4 -4 -4 -4 -4 -3 -3 -3 -3 -3 -3
0 0 -0 -0 0 2 2 2 1 -0 -1 -1 -2 -2 -3 -3 -3 -3 -3 -3 -3 -4 -4 -4 -4 -5 -5 -5 -5 -4 -3 -4 -4 -4 -4 -4 -3 -3 -4 -4 -4 -4 -4 -3 -3 -3 -3 -3 -3
1 1 0 -0 0 1 2 2 1 0 -0 -1 -1 -2 -3 -3 -3 -3 -3 -3 -3 -3 -4 -4 -4 -4 -5 -5 -5 -4 -3 -3 -4 -4 -4 -3 -3 -3 -4 -4 -4 -4 -4 -4 -4 -4 -3 -3 -3
2 2 1 -0 0 1 1 1 0 0 0 0 -0 -1 -2 -3 -3 -3 -3 -3 -3 -4 -4 -5 -5 -5 -5 -5 -5 -4 -4 -4 -3 -3 -3 -3 -3 -3 -4 -4 -4 -4 -4 -4 -4 -4 -3 -3 -3
2 1 0 0 1 1 1 0 -0 -0 0 1 0 -0 -1 -2 -3 -4 -4 -4 -3 -4 -5 -5 -5 -6 -5 -5 -5 -4 -4 -4 -3 -3 -2 -2 -2 -3 -4 -4 -4 -4 -4 -4 -4 -4 -4 -3 -3
1 1 1 1 2 1 1 -0 -1 -0 0 0 -0 -0 -1 -2 -3 -4 -4 -4 -4 -4 -4 -5 -6 -6 -6 -6 -5 -4 -4 -4 -4 -3 -2 -1 -2 -3 -4 -4 -4 -4 -4 -4 -4 -4 -4 -4 -3
2 1 1 2 2 1 0 -0 -1 -0 -0 -0 -1 -1 -1 -2 -3 -4 -4 -4 -4 -4 -5 -6 -7 -7 -7 -6 -5 -4 -4 -4 -4 -4 -3 -2 -2 -3 -4 -4 -4 -4 -4 -3 -3 -4 -4 -4 -4
2 2 2 2 1 1 -0 -1 -1 -0 0 0 -1 -1 -1 -2 -3 -4 -4 -5 -5 -5 -5 -6 -7 -7 -7 -6 -6 -5 -4 -4 -3 -3 -3 -3 -3 -3 -4 -4 -4 -4 -4 -3 -3 -4 -5 -5 -4
1 1 1 0 -0 -0 -0 -1 -1 -0 0 0 -0 -2 -2 -2 -3 -4 -4 -5 -5 -5 -5 -6 -7 -7 -7 -7 -6 -6 -5 -4 -3 -3 -3 -3 -3 -4 -4 -4 -5 -5 -5 -4 -4 -4 -5 -5 -5
0 -0 -0 -1 -1 -1 -1 -0 -0 -0 0 0 -1 -2 -3 -3 -3 -4 -4 -5 -5 -5 -6 -6 -7 -8 -7 -7 -6 -6 -5 -4 -3 -3 -3 -3 -4 -4 -5 -5 -5 -5 -5 -5 -5 -4 -4 -4 -4
0 -0 -0 -1 -1 -1 -1 -0 -0 0 -0 -1 -1 -2 -3 -3 -4 -4 -4 -5 -5 -6 -6 -7 -8 -8 -8 -7 -6 -6 -5 -4 -3 -3 -3 -3 -4 -5 -5 -5 -5 -5 -6 -5 -5 -4 -3 -3 -3
0 0 -0 -1 -1 -1 -1 -0 0 0 -0 -1 -1 -2 -3 -3 -4 -5 -5 -5 -5 -6 -6 -7 -8 -8 -8 -7 -7 -6 -6 -5 -4 -3 -3 -4 -5 -5 -5 -5 -5 -6 -6 -6 -6 -5 -4 -3 -3
-0 -0 -0 -1 -1 -1 -1 -0 0 0 -0 -1 -2 -3 -3 -4 -4 -5 -5 -6 -6 -6 -6 -7 -7 -8 -8 -7 -7 -6 -6 -5 -5 -4 -4 -5 -5 -5 -4 -4 -5 -6 -6 -6 -6 -5 -5 -4 -4
-0 -0 -0 -1 -1 -1 -0 0 0 0 -1 -2 -3 -3 -3 -4 -4 -5 -6 -6 -6 -6 -6 -7 -7 -8 -7 -7 -7 -7 -6 -5 -5 -5 -5 -5 -5 -4 -3 -3 -4 -5 -6 -6 -6 -5 -5 -5 -5